Regional Weather Roundup
Issued by NWS

Home | Current Version | Previous Version | Text Only | Print | Product List | Glossary Off
Versions: 1 2 3 4 5 6 7 8 9 10 11 12 13 14 15 16 17 18 19 20 21 22 23 24 25 26 27 28 29 30 31 32 33 34 35 36 37 38 39 40 41 42 43 44 45 46 47 48 49 50

000
ASUS43 KLMK 181802
RWRKY
KENTUCKY REGIONAL WEATHER ROUNDUP
NATIONAL WEATHER SERVICE LOUISVILLE KY
100 PM EST WED JAN 18 2017

NOTE "FAIR" INDICATES FEW OR NO CLOUDS BELOW 12,000 FEET
WITH NO SIGNIFICANT WEATHER AND/OR OBSTRUCTIONS TO VISIBILITY.

KYZ001>023-026-027-061>063-070>075-181900-
WESTERN AND SOUTH CENTRAL KENTUCKY

CITY           SKY/WX    TMP DP  RH WIND       PRES   REMARKS
PADUCAH        CLOUDY    44  37  76 CALM      30.23F
HENDERSON      CLOUDY    43  34  70 CALM      30.23F
OWENSBORO      NOT AVBL
HOPKINSVILLE   CLOUDY    46  39  77 CALM      30.21F
BOWLING GREEN  CLOUDY    47  38  71 CALM      30.23F
GLASGOW        NOT AVBL
$$

KYZ024-025-028>034-038-045-046-053-181900-
NORTH CENTRAL KENTUCKY

CITY           SKY/WX    TMP DP  RH WIND       PRES   REMARKS
LOUISVILLE/SDF CLOUDY    44  35  70 NW7       30.22F
LOUISVILLE/LOU CLOUDY    43  35  73 W9        30.22F
FORT KNOX      CLOUDY    42  35  76 W5        30.20S
$$

KYZ035>037-039>044-047>052-055>060-089>105-181900-
NORTHEAST KENTUCKY

CITY           SKY/WX    TMP DP  RH WIND       PRES   REMARKS
LEXINGTON      CLOUDY    43  36  76 W7        30.20F
COVINGTON      CLOUDY    40  36  86 W10       30.18F WCI  33
FRANKFORT      CLOUDY    42  35  76 W6        30.20F
$$

KYZ054-064>069-076>088-106>120-181900-
SOUTHEAST KENTUCKY

CITY           SKY/WX    TMP DP  RH WIND       PRES   REMARKS
JACKSON        CLOUDY    43  37  79 NW3       30.18F
LONDON         CLOUDY    45  34  65 SW6       30.20F
SOMERSET       NOT AVBL
MIDDLESBORO    MOSUNNY   51  39  62 SW3       30.18F
MONTICELLO     CLOUDY    48  37  65 W8        30.23F
$$





USA.gov is the U.S. government's official web portal to all federal, state and local government web resources and services.